FW8143 Weather Reports


time (UTC)temp
C
wind
direction
speed
KPH
gust
KPH
rain 1hr
cm
rain 24hr
cm
rain mn
cm
humidity
%
barometer
mb
20260510220224 20 53 9.7 30.6 0.00 0.00 0.00 32 1028.9
20260510215944 20 144 11.3 29.0 0.00 0.00 0.00 31 1028.9
20260510215223 21 165 11.3 29.0 0.00 0.00 0.00 31 1028.9
20260510214944 20 155 9.7 22.5 0.00 0.00 0.00 30 1028.8
20260510214224 20 178 12.9 33.8 0.00 0.00 0.00 30 1028.8
20260510213943 20 132 12.9 33.8 0.00 0.00 0.00 30 1028.8
20260510213224 20 136 11.3 24.1 0.00 0.00 0.00 28 1028.7
20260510212724 20 111 11.3 25.7 0.00 0.00 0.00 28 1028.9
20260510212224 18 154 9.7 25.7 0.00 0.00 0.00 30 1028.8
20260510211723 18 168 9.7 22.5 0.00 0.00 0.00 31 1028.7
20260510211224 18 88 9.7 22.5 0.00 0.00 0.00 32 1028.8
20260510211203 18 138 8.0 24.1 0.00 0.00 0.00 32 1029.1
20260510210223 17 98 8.0 24.1 0.00 0.00 0.00 33 1028.8
20260510205724 17 112 9.7 22.5 0.00 0.00 0.00 35 1029.1
20260510205225 16 127 9.7 22.5 0.00 0.00 0.00 35 1029.1
20260510204724 16 199 12.9 25.7 0.00 0.00 0.00 35 1029.4
20260510204224 16 123 16.1 30.6 0.00 0.00 0.00 37 1029.7
20260510203942 16 63 12.9 30.6 0.00 0.00 0.00 38 1029.9
20260510203439 17 111 11.3 24.1 0.00 0.00 0.00 34 1030.2
20260510202719 17 50 9.7 19.3 0.00 0.00 0.00 31 1030.1
20260510202219 17 57 4.8 19.3 0.00 0.00 0.00 30 1030.1
20260510201719 18 333 9.7 27.4 0.00 0.00 0.00 31 1029.9
20260510201219 18 230 14.5 30.6 0.00 0.00 0.00 32 1029.9
20260510201207 18 148 14.5 30.6 0.00 0.00 0.00 36 1029.7
20260510200220 19 151 16.1 32.2 0.00 0.00 0.00 34 1029.6
20260510195720 20 130 16.1 35.4 0.00 0.00 0.00 32 1029.3
20260510195220 21 151 16.1 35.4 0.00 0.00 0.00 30 1029.2
20260510194945 22 111 19.3 40.2 0.00 0.00 0.00 28 1029.1
20260510194219 23 110 16.1 40.2 0.00 0.00 0.00 25 1028.9
20260510194200 25 192 9.7 29.0 0.00 0.00 0.00 18 1028.8
20260510193219 24 170 9.7 29.0 0.00 0.00 0.00 18 1028.7
20260510192939 24 146 12.9 32.2 0.00 0.00 0.00 18 1028.8
20260510192441 24 207 12.9 32.2 0.00 0.00 0.00 18 1028.8
20260510191720 23 236 11.3 25.7 0.00 0.00 0.00 19 1028.8
20260510191218 23 256 9.7 25.7 0.00 0.00 0.00 20 1029.1
20260510190713 23 205 8.0 22.5 0.00 0.00 0.00 19 1029.1
20260510190206 23 271 8.0 22.5 0.00 0.00 0.00 18 1029.1
20260510185701 23 211 8.0 22.5 0.00 0.00 0.00 19 1029.1
20260510185154 23 163 4.8 22.5 0.00 0.00 0.00 20 1028.9
20260510184648 23 62 3.2 22.5 0.00 0.00 0.00 18 1029.2
20260510184141 23 139 8.0 22.5 0.00 0.00 0.00 20 1029.2
20260510183635 23 255 8.0 29.0 0.00 0.00 0.00 20 1029.3
20260510183129 22 252 6.4 29.0 0.00 0.00 0.00 20 1029.1
20260510182623 22 269 8.0 17.7 0.00 0.00 0.00 20 1029.2
20260510182117 22 190 8.0 17.7 0.00 0.00 0.00 22 1029.1
20260510181611 22 290 8.0 19.3 0.00 0.00 0.00 22 1029.2
20260510181323 21 234 9.7 25.7 0.00 0.00 0.00 23 1029.3
20260510180559 21 238 11.3 25.7 0.00 0.00 0.00 24 1029.3
20260510180053 21 282 12.9 27.4 0.00 0.00 0.00 25 1029.3
20260510175547 21 201 12.9 27.4 0.00 0.00 0.00 25 1029.3
20260510175041 21 297 11.3 27.4 0.00 0.00 0.00 24 1029.2
20260510174535 21 248 8.0 27.4 0.00 0.00 0.00 26 1029.2
20260510174029 21 202 9.7 19.3 0.00 0.00 0.00 24 1029.4
20260510173523 21 329 11.3 20.9 0.00 0.00 0.00 25 1029.4
20260510173016 21 175 12.9 27.4 0.00 0.00 0.00 26 1029.4
20260510172741 21 188 12.9 30.6 0.00 0.00 0.00 25 1029.4
20260510172005 20 166 9.7 30.6 0.00 0.00 0.00 26 1029.4
20260510171459 20 168 11.3 25.7 0.00 0.00 0.00 27 1029.4
20260510170953 20 149 12.9 25.7 0.00 0.00 0.00 28 1029.4
20260510170904 20 170 12.9 25.7 0.00 0.00 0.00 28 1029.3
20260510170751 20 232 11.3 25.7 0.00 0.00 0.00 27 1029.3
20260510165436 20 194 12.9 25.7 0.00 0.00 0.00 29 1029.2
20260510164929 19 194 12.9 25.7 0.00 0.00 0.00 29 1029.1
20260510164423 19 165 11.3 24.1 0.00 0.00 0.00 30 1029.2
20260510164136 19 174 6.4 24.1 0.00 0.00 0.00 30 1029.2
20260510163410 18 284 9.7 20.9 0.00 0.00 0.00 29 1029.2
20260510162905 18 246 11.3 20.9 0.00 0.00 0.00 30 1029.2
20260510162358 18 244 11.3 27.4 0.00 0.00 0.00 31 1028.9
20260510162116 18 192 9.7 27.4 0.00 0.00 0.00 32 1028.9
20260510161612 18 284 8.0 20.9 0.00 0.00 0.00 28 1028.9
20260510160841 18 266 6.4 20.9 0.00 0.00 0.00 28 1028.9
20260510160335 18 206 8.0 20.9 0.00 0.00 0.00 29 1028.9
20260510155828 18 161 8.0 20.9 0.00 0.00 0.00 29 1028.9
20260510155322 17 211 8.0 19.3 0.00 0.00 0.00 30 1028.8
20260510155041 17 158 9.7 20.9 0.00 0.00 0.00 29 1028.9
20260510154311 17 186 9.7 20.9 0.00 0.00 0.00 29 1028.8
20260510153805 17 194 9.7 20.9 0.00 0.00 0.00 29 1028.8
20260510153519 17 190 9.7 22.5 0.00 0.00 0.00 30 1028.8
20260510152753 17 164 8.0 22.5 0.00 0.00 0.00 31 1028.8
20260510152247 17 181 8.0 19.3 0.00 0.00 0.00 31 1028.7
20260510151741 16 132 9.7 22.5 0.00 0.00 0.00 30 1028.7
20260510151234 16 138 9.7 20.9 0.00 0.00 0.00 31 1028.6
20260510150952 16 184 9.7 20.9 0.00 0.00 0.00 31 1028.6
20260510150222 16 169 11.3 22.5 0.00 0.00 0.00 32 1028.4
20260510145716 15 155 11.3 24.1 0.00 0.00 0.00 33 1028.4
20260510145211 15 168 9.7 24.1 0.00 0.00 0.00 34 1028.4
20260510144707 15 157 8.0 22.5 0.00 0.00 0.00 34 1028.4
20260510144207 14 150 6.4 17.7 0.00 0.00 0.00 35 1028.4
20260510143708 14 147 6.4 14.5 0.00 0.00 0.00 37 1028.4
20260510143428 13 131 6.4 16.1 0.00 0.00 0.00 38 1028.4
20260510142924 13 108 8.0 16.1 0.00 0.00 0.00 38 1028.3
20260510142428 13 132 8.0 16.1 0.00 0.00 0.00 39 1028.3
20260510141707 12 173 6.4 16.1 0.00 0.00 0.00 40 1028.3
20260510141207 12 103 6.4 16.1 0.00 0.00 0.00 40 1028.2
20260510140707 12 134 8.0 16.1 0.00 0.00 0.00 41 1028.2
20260510140207 12 109 6.4 16.1 0.00 0.00 0.00 42 1028.1
20260510135707 11 0 4.8 14.5 0.00 0.00 0.00 41 1028.1
20260510135207 11 123 4.8 14.5 0.00 0.00 0.00 42 1027.9
20260510134926 11 150 6.4 16.1 0.00 0.00 0.00 41 1027.9
20260510134516 11 109 6.4 19.3 0.00 0.00 0.00 41 1027.9
20260510134209 11 98 6.4 16.1 0.00 0.00 0.00 41 1027.9
20260510133919 11 140 8.0 19.3 0.00 0.00 0.00 41 1027.8
20260510132925 11 96 8.0 17.7 0.00 0.00 0.00 40 1027.9
20260510132201 12 109 8.0 17.7 0.00 0.00 0.00 40 1027.8
20260510131654 12 100 9.7 20.9 0.00 0.00 0.00 40 1027.8
20260510131149 12 92 9.7 20.9 0.00 0.00 0.00 40 1027.7
20260510130643 12 100 8.0 24.1 0.00 0.00 0.00 40 1027.6
20260510130136 12 105 6.4 24.1 0.00 0.00 0.00 39 1027.4
20260510125631 12 88 8.0 17.7 0.00 0.00 0.00 39 1027.4
20260510125128 12 79 9.7 19.3 0.00 0.00 0.00 39 1027.3
20260510124629 12 85 9.7 19.3 0.00 0.00 0.00 39 1027.2
20260510124400 12 82 8.0 16.1 0.00 0.00 0.00 38 1027.2
20260510123628 12 109 8.0 19.3 0.00 0.00 0.00 37 1027.2
20260510123129 12 127 9.7 20.9 0.00 0.00 0.00 37 1027.1
20260510122629 12 107 9.7 20.9 0.00 0.00 0.00 37 1027.2
20260510122128 12 148 8.0 20.9 0.00 0.00 0.00 36 1027.1
20260510121629 13 124 6.4 14.5 0.00 0.00 0.00 36 1027.1
20260510121351 13 91 6.4 14.5 0.00 0.00 0.00 35 1026.9
20260510120629 13 74 6.4 14.5 0.00 0.00 0.00 35 1026.9
20260510120129 13 88 4.8 12.9 0.00 0.00 0.00 34 1026.9
20260510115628 13 142 4.8 14.5 0.00 0.00 0.00 34 1026.9
20260510115349 13 51 4.8 14.5 0.00 0.00 0.00 34 1026.8
20260510114629 13 17 4.8 14.5 0.00 0.00 0.00 33 1026.8
20260510114129 13 70 3.2 14.5 0.00 0.00 0.00 33 1026.8
20260510113630 13 310 4.8 12.9 0.00 0.00 0.00 33 1026.7
20260510113127 13 30 4.8 12.9 0.00 0.00 0.00 33 1026.8
20260510112626 13 90 6.4 20.9 0.00 0.00 0.00 33 1026.7
20260510112127 13 105 8.0 20.9 0.00 0.00 0.00 33 1026.7
20260510111626 13 42 6.4 17.7 0.00 0.00 0.00 33 1026.7
20260510111127 13 63 8.0 19.3 0.00 0.00 0.00 33 1026.7
20260510110844 13 109 11.3 24.1 0.00 0.00 0.00 33 1026.5
20260510110126 13 124 11.3 24.1 0.00 0.00 0.00 30 1026.5
20260510105626 13 139 9.7 24.1 0.00 0.00 0.00 30 1026.3
20260510105350 13 97 8.0 20.9 0.00 0.00 0.00 30 1026.4
20260510104844 13 152 4.8 20.9 0.00 0.00 0.00 29 1026.4
20260510104123 13 133 4.8 12.9 0.00 0.00 0.00 29 1026.4
20260510103850 13 101 4.8 12.9 0.00 0.00 0.00 30 1026.5
20260510103123 13 128 4.8 9.7 0.00 0.00 0.00 30 1026.3
20260510102622 13 98 4.8 9.7 0.00 0.00 0.00 30 1026.3
20260510102350 13 110 4.8 9.7 0.00 0.00 0.00 30 1026.2
20260510101623 13 93 4.8 6.4 0.00 0.00 0.00 30 1026.2
20260510101123 13 98 6.4 11.3 0.00 0.00 0.00 30 1026.0
20260510100624 13 90 4.8 11.3 0.00 0.00 0.00 30 1025.9
20260510100119 13 80 3.2 9.7 0.00 0.00 0.00 29 1026.0
20260510095619 13 71 1.6 3.2 0.00 0.00 0.00 29 1026.0
20260510095340 13 61 1.6 4.8 0.00 0.00 0.00 29 1026.0
20260510094618 13 61 0.0 4.8 0.00 0.00 0.00 29 1025.8
20260510094119 13 5 0.0 3.2 0.00 0.00 0.00 29 1025.8
20260510093617 13 199 0.0 4.8 0.00 0.00 0.00 29 1025.7
20260510093115 13 159 1.6 6.4 0.00 0.00 0.00 29 1025.5
20260510092614 13 140 3.2 9.7 0.00 0.00 0.00 29 1025.3
20260510092113 13 95 4.8 14.5 0.00 0.00 0.00 29 1025.2
20260510091612 13 92 6.4 14.5 0.00 0.00 0.00 29 1025.2
20260510091112 13 31 6.4 14.5 0.00 0.00 0.00 29 1024.9
20260510090614 13 40 8.0 14.5 0.00 0.00 0.00 29 1024.9
20260510090338 13 49 8.0 14.5 0.00 0.00 0.00 29 1024.9
20260510085611 13 24 9.7 16.1 0.00 0.00 0.00 29 1024.8
20260510085106 13 24 9.7 16.1 0.00 0.00 0.00 29 1024.9
20260510084600 13 13 9.7 16.1 0.00 0.00 0.00 29 1024.9
20260510084315 13 11 8.0 14.5 0.00 0.00 0.00 29 1024.9
20260510083547 13 9 6.4 11.3 0.00 0.00 0.00 29 1024.8
20260510083042 13 42 8.0 16.1 0.00 0.00 0.00 28 1024.8
20260510082535 13 26 8.0 16.1 0.00 0.00 0.00 28 1024.7
20260510082250 13 25 9.7 16.1 0.00 0.00 0.00 28 1024.8
20260510081523 13 22 9.7 20.9 0.00 0.00 0.00 28 1024.8
20260510081017 13 20 9.7 20.9 0.00 0.00 0.00 28 1024.7
20260510080730 13 13 11.3 19.3 0.00 0.00 0.00 28 1024.7
20260510080223 13 25 11.3 19.3 0.00 0.00 0.00 28 1024.8
20260510075459 13 21 11.3 19.3 0.00 0.00 0.00 28 1024.8
20260510074953 13 5 11.3 19.3 0.00 0.00 0.00 28 1024.8
20260510074447 14 0 11.3 19.3 0.00 0.00 0.00 28 1024.8
20260510073941 14 355 11.3 17.7 0.00 0.00 0.00 27 1024.7
20260510073435 14 13 8.0 16.1 0.00 0.00 0.00 27 1024.8
20260510072929 14 20 6.4 12.9 0.00 0.00 0.00 27 1024.8
20260510072424 14 39 6.4 12.9 0.00 0.00 0.00 26 1024.8
20260510071917 14 30 8.0 12.9 0.00 0.00 0.00 26 1024.8
20260510071416 15 27 8.0 17.7 0.00 0.00 0.00 26 1024.8
20260510070917 15 31 6.4 17.7 0.00 0.00 0.00 26 1024.8
20260510070414 15 22 6.4 9.7 0.00 0.00 0.00 26 1024.7
20260510070132 15 17 4.8 9.7 0.00 0.00 0.00 25 1024.7
20260510065416 15 28 6.4 14.5 0.00 0.00 0.00 25 1024.7
20260510064913 15 13 8.0 14.5 0.00 0.00 0.00 25 1024.7
20260510064412 15 14 9.7 17.7 0.00 0.00 0.00 25 1024.7
20260510063912 15 40 11.3 17.7 0.00 0.00 0.00 25 1024.7
20260510063635 15 340 11.3 17.7 0.00 0.00 0.00 25 1024.7
20260510063132 15 16 11.3 17.7 0.00 0.00 0.00 25 1024.7
20260510062412 15 15 11.3 19.3 0.00 0.00 0.00 24 1024.7
20260510061912 15 15 11.3 19.3 0.00 0.00 0.00 24 1024.5
20260510061412 15 28 11.3 20.9 0.00 0.00 0.00 24 1024.4
20260510060913 15 10 12.9 20.9 0.00 0.00 0.00 24 1024.4
20260510060411 15 45 11.3 20.9 0.00 0.00 0.00 24 1024.5
20260510055907 15 5 11.3 19.3 0.00 0.00 0.00 24 1024.4
20260510055407 16 22 11.3 19.3 0.00 0.00 0.00 24 1024.4
20260510054907 16 12 12.9 20.9 0.00 0.00 0.00 24 1024.4
20260510054407 16 9 11.3 20.9 0.00 0.00 0.00 23 1024.4
20260510053906 16 31 9.7 19.3 0.00 0.00 0.00 23 1024.4
20260510053406 16 22 8.0 19.3 0.00 0.00 0.00 23 1024.4
20260510052904 16 35 8.0 14.5 0.00 0.00 0.00 22 1024.4
20260510052405 16 38 8.0 14.5 0.00 0.00 0.00 22 1024.4
20260510051905 16 44 8.0 14.5 0.00 0.00 0.00 21 1024.4
20260510051404 17 17 8.0 14.5 0.00 0.00 0.00 21 1024.4
20260510050905 17 36 9.7 17.7 0.00 0.00 0.00 21 1024.4
20260510050404 17 5 11.3 17.7 0.00 0.00 0.00 21 1024.3
20260510045904 17 355 11.3 19.3 0.00 0.00 0.00 21 1024.3
20260510045405 17 347 14.5 24.1 0.00 0.00 0.00 21 1024.3
20260510044904 17 32 12.9 24.1 0.00 0.00 0.00 21 1024.3
20260510044405 17 24 11.3 19.3 0.00 0.00 0.00 21 1024.4
20260510043904 17 355 11.3 20.9 0.00 0.00 0.00 20 1024.4
20260510043404 17 355 11.3 20.9 0.00 0.00 0.00 21 1024.4
20260510042904 17 355 11.3 20.9 0.00 0.00 0.00 20 1024.4
20260510042404 17 322 14.5 22.5 0.00 0.00 0.00 20 1024.4
20260510041858 17 32 14.5 22.5 0.00 0.00 0.00 20 1024.4
20260510041352 17 350 12.9 20.9 0.00 0.00 0.00 20 1024.4
20260510041108 17 5 12.9 19.3 0.00 0.00 0.00 19 1024.3
20260510040340 17 5 14.5 20.9 0.00 0.00 0.00 19 1024.2
20260510035834 17 355 14.5 20.9 0.00 0.00 0.00 18 1024.2
20260510035328 17 19 12.9 19.3 0.00 0.00 0.00 18 1024.2
20260510034822 17 24 14.5 22.5 0.00 0.00 0.00 17 1024.2
20260510034536 18 355 12.9 22.5 0.00 0.00 0.00 16 1024.2
20260510033816 18 19 11.3 17.7 0.00 0.00 0.00 15 1024.2
20260510033805 18 5 9.7 16.1 0.00 0.00 0.00 15 1024.0
20260510032814 18 5 8.0 14.5 0.00 0.00 0.00 15 1023.9
20260510032314 18 5 9.7 16.1 0.00 0.00 0.00 15 1023.9
20260510031814 18 355 8.0 16.1 0.00 0.00 0.00 15 1023.8
20260510031537 19 319 6.4 19.3 0.00 0.00 0.00 14 1023.8
20260510030813 19 319 6.4 19.3 0.00 0.00 0.00 14 1023.7
20260510030311 19 336 6.4 12.9 0.00 0.00 0.00 14 1023.4
20260510025810 19 327 4.8 12.9 0.00 0.00 0.00 13 1023.4
20260510025541 20 5 4.8 12.9 0.00 0.00 0.00 13 1023.3
20260510024810 20 331 6.4 16.1 0.00 0.00 0.00 13 1023.2
20260510024312 20 340 8.0 16.1 0.00 0.00 0.00 13 1023.0
20260510023810 20 333 8.0 19.3 0.00 0.00 0.00 13 1023.0
20260510023310 20 287 6.4 19.3 0.00 0.00 0.00 13 1023.0
20260510022810 20 5 6.4 16.1 0.00 0.00 0.00 14 1022.9
20260510022530 20 298 8.0 19.3 0.00 0.00 0.00 13 1022.9
20260510021811 20 317 9.7 19.3 0.00 0.00 0.00 13 1022.8
20260510021306 20 9 11.3 29.0 0.00 0.00 0.00 13 1022.6
20260510020759 21 208 11.3 29.0 0.00 0.00 0.00 13 1022.6
20260510020254 21 290 9.7 24.1 0.00 0.00 0.00 13 1022.6
20260510015748 21 298 9.7 24.1 0.00 0.00 0.00 13 1022.6
20260510015242 21 269 11.3 24.1 0.00 0.00 0.00 12 1022.5
20260510014735 21 284 9.7 24.1 0.00 0.00 0.00 12 1022.4
20260510014230 22 307 9.7 22.5 0.00 0.00 0.00 12 1022.4
20260510013723 22 301 11.3 27.4 0.00 0.00 0.00 12 1022.4
20260510013217 22 289 16.1 35.4 0.00 0.00 0.00 11 1022.1
20260510012711 22 203 19.3 35.4 0.00 0.00 0.00 11 1022.1
20260510012424 22 273 14.5 35.4 0.00 0.00 0.00 12 1022.3
20260510011923 22 290 11.3 32.2 0.00 0.00 0.00 12 1022.3
20260510011153 22 335 16.1 32.2 0.00 0.00 0.00 12 1022.0
20260510010647 22 317 12.9 27.4 0.00 0.00 0.00 12 1022.1
20260510010141 22 295 12.9 27.4 0.00 0.00 0.00 12 1022.0
20260510005854 22 355 14.5 30.6 0.00 0.00 0.00 12 1022.0
20260510005129 22 288 16.1 32.2 0.00 0.00 0.00 12 1022.0
20260510004623 22 298 14.5 32.2 0.00 0.00 0.00 11 1022.0
20260510004118 22 301 14.5 29.0 0.00 0.00 0.00 12 1022.0
20260510003611 23 324 12.9 29.0 0.00 0.00 0.00 11 1022.0
20260510003105 23 266 14.5 30.6 0.00 0.00 0.00 11 1022.0
20260510002559 23 0 14.5 30.6 0.00 0.00 0.00 11 1021.9
20260510002053 23 313 16.1 35.4 0.00 0.00 0.00 12 1022.0
20260510001547 23 304 17.7 35.4 0.00 0.00 0.00 11 1021.9
20260510001302 23 350 14.5 32.2 0.00 0.00 0.00 11 1021.8
20260510000535 23 258 14.5 32.2 0.00 0.00 0.00 12 1021.8
20260510000030 23 319 16.1 29.0 0.00 0.00 0.00 11 1021.9
20260509235523 23 251 14.5 27.4 0.00 0.00 0.00 11 1021.8
20260509235017 23 247 11.3 27.4 0.00 0.00 0.00 11 1021.8
20260509234512 23 285 14.5 30.6 0.00 0.00 0.00 11 1021.8
20260509234006 24 331 17.7 35.4 0.00 0.00 0.00 11 1021.8
20260509233727 24 0 16.1 35.4 0.00 0.00 0.00 11 1021.6
20260509232953 25 287 12.9 29.0 0.00 0.00 0.00 10 1021.6
20260509232708 25 284 14.5 33.8 0.00 0.00 0.00 10 1021.8
20260509231941 25 325 17.7 33.8 0.00 0.00 0.00 10 1021.9
20260509231435 25 279 17.7 41.8 0.00 0.00 0.00 10 1021.8
20260509230930 25 238 19.3 41.8 0.00 0.00 0.00 11 1021.6
20260509230647 25 282 19.3 41.8 0.00 0.00 0.00 10 1021.6
20260509230150 25 244 17.7 33.8 0.00 0.00 0.00 10 1021.8
20260509225427 25 248 17.7 38.6 0.00 0.00 0.00 10 1021.8
20260509224926 25 250 17.7 38.6 0.00 0.00 0.00 10 1021.6
20260509224424 25 295 14.5 29.0 0.00 0.00 0.00 10 1021.8
20260509224142 25 321 14.5 29.0 0.00 0.00 0.00 10 1021.9
20260509223424 25 269 14.5 29.0 0.00 0.00 0.00 10 1021.9
20260509222923 25 238 14.5 27.4 0.00 0.00 0.00 10 1022.0
20260509222646 25 213 14.5 37.0 0.00 0.00 0.00 10 1022.0
20260509221924 25 236 17.7 37.0 0.00 0.00 0.00 11 1022.1
20260509221424 25 248 20.9 38.6 0.00 0.00 0.00 10 1022.0
20260509221413 25 264 19.3 38.6 0.00 0.00 0.00 10 1021.9